Roseburg, OR

12:21 AM PDT on June 25, 2017 (GMT -0700)
Roseburg Regional

Weather History for KRBG - May, 2013

Change the Weather History Date:

Monday, May 6, 2013

  Actual Average Record
Temperature  
Mean Temperature 65 °F 57 °F  
Max Temperature 79 °F 68 °F 88 °F (1949)
Min Temperature 50 °F 46 °F 31 °F (1965)
Degree Days  
Heating Degree Days 0 8  
Month to date heating degree days 13 54  
Since 1 July heating degree days 3461 3818  
Cooling Degree Days 0 0  
Month to date cooling degree days 7 0  
Year to date cooling degree days 9 1  
Growing Degree Days 14 (Base 50)    
Moisture  
Dew Point 48 °F    
Average Humidity 66    
Maximum Humidity 96    
Minimum Humidity 36    
Precipitation  
Precipitation T in 0.07 in 1.16 in (1963)
Month to date precipitation 0.14 0.49  
Year to date precipitation 6.30 15.85  
Snow  
Snow 0.00 in - - ()
Month to date snowfall  
Since 1 July snowfall  
Snow Depth -    
Sea Level Pressure  
Sea Level Pressure 29.88 in    
Wind  
Wind Speed 3 mph (WSW)    
Max Wind Speed 15 mph    
Max Gust Speed 22 mph    
Visibility 10 miles    
Events      
T = Trace of Precipitation, MM = Missing Value Source: NWS Daily Summary

Daily Weather History Graph

Daily Weather History Graph

Search for Another Location

Airport or City:

Trip Planner

Search our weather history database for the weather conditions in past years. The results will help you decide how hot, cold, wet, or windy it might be!

Date:

Astronomy

May. 06, 2013 Rise Set
Actual Time 5:59 AM PDT 8:21 PM PDT
Civil Twilight 5:27 AM PDT 8:53 PM PDT
Nautical Twilight 4:48 AM PDT 9:32 PM PDT
Astronomical Twilight 4:04 AM PDT 10:16 PM PDT
Moon 4:09 AM PDT (5/6) 5:22 PM PDT (5/6)
Length of Visible Light 15h 25m
Length of Day
14h 21m
Waning Crescent, 10% of the Moon is Illuminated
May 6
Waning Crescent
May 9
New
May 17
First Quarter
May 24
Full
May 31
Last Quarter

Hourly Weather History & Observations

Time (PDT) Temp. Dew Point Humidity Pressure Visibility Wind Dir Wind Speed Gust Speed Precip Events Conditions
12:53 AM 57.0 °F 52.0 °F 83% 29.84 in 10.0 mi North 3.5 mph - N/A   Clear
1:53 AM 55.0 °F 50.0 °F 83% 29.86 in 10.0 mi Calm Calm - N/A   Clear
2:53 AM 53.1 °F 50.0 °F 89% 29.86 in 10.0 mi Calm Calm - N/A   Clear
3:53 AM 52.0 °F 50.0 °F 93% 29.88 in 10.0 mi Calm Calm - N/A   Clear
4:53 AM 52.0 °F 50.0 °F 93% 29.89 in 10.0 mi Calm Calm - N/A   Clear
5:53 AM 51.1 °F 48.9 °F 92% 29.89 in 10.0 mi Calm Calm - N/A   Clear
6:53 AM 52.0 °F 48.9 °F 89% 29.90 in 10.0 mi Calm Calm - N/A   Clear
7:53 AM 54.0 °F 50.0 °F 86% 29.92 in 10.0 mi Calm Calm - N/A   Clear
8:53 AM 57.9 °F 50.0 °F 75% 29.93 in 10.0 mi Calm Calm - N/A   Clear
9:53 AM 62.1 °F 50.0 °F 65% 29.92 in 10.0 mi Calm Calm - N/A   Clear
10:53 AM 64.9 °F 48.9 °F 56% 29.91 in 10.0 mi Calm Calm - N/A   Clear
11:53 AM 68.0 °F 48.0 °F 49% 29.90 in 10.0 mi Calm Calm - N/A   Clear
12:53 PM 71.1 °F 48.0 °F 44% 29.87 in 10.0 mi Variable 4.6 mph - N/A   Clear
1:53 PM 75.0 °F 48.9 °F 40% 29.85 in 10.0 mi Variable 3.5 mph - N/A   Clear
2:53 PM 75.9 °F 48.9 °F 38% 29.83 in 10.0 mi Variable 5.8 mph - N/A   Clear
3:53 PM 77.0 °F 48.0 °F 36% 29.81 in 10.0 mi NW 8.1 mph - N/A   Clear
4:53 PM 77.0 °F 48.9 °F 37% 29.79 in 10.0 mi West 6.9 mph - N/A   Clear
5:53 PM 73.0 °F 46.0 °F 38% 29.81 in 10.0 mi NW 12.7 mph 19.6 mph N/A   Clear
6:53 PM 71.1 °F 46.9 °F 42% 29.83 in 10.0 mi Variable 4.6 mph - N/A   Clear
7:53 PM 69.1 °F 46.0 °F 44% 29.88 in 10.0 mi Variable 3.5 mph - N/A   Partly Cloudy
8:53 PM 64.9 °F 44.1 °F 47% 29.89 in 10.0 mi SW 8.1 mph - N/A   Scattered Clouds
9:53 PM 64.0 °F 44.1 °F 48% 29.93 in 10.0 mi South 3.5 mph - N/A   Mostly Cloudy
10:53 PM 63.0 °F 46.9 °F 56% 29.96 in 10.0 mi South 3.5 mph - 0.00 in   Overcast
11:53 PM 60.1 °F 48.0 °F 64% 29.94 in 10.0 mi SW 3.5 mph - 0.00 in   Partly Cloudy